This demonstration page uses our WeatherBlox Daily Observations layout. Learn more.

Left ArrowRight Arrow

Hourly Observations for October 10, 2016

Temp ( °F °C ) Dew Point ( °F °C ) Humidity (%) Winds ( mph kmh ) Pressure ( in mb ) Visibility ( mi km ) Precip ( " mm )
12:53 am 00:53 Clear 65 18.3 59 15 81 81 SSE 10 17 30.09 1019 10 16 0.00 0.00
1:53 am 01:53 Clear 63 17.2 58 14.4 84 84 ESE 3 6 30.09 1019 10 16 0.00 0.00
2:53 am 02:53 Mostly Clear 62 16.7 58 14.4 86 86 ESE 9 15 30.08 1019 10 16 0.00 0.00
3:53 am 03:53 Clear 62 16.7 58 14.4 86 86 SE 9 15 30.07 1018 10 16 0.00 0.00
4:53 am 04:53 Clear 61 16.1 58 14.4 90 90 SE 9 15 30.06 1018 10 16 0.00 0.00
5:53 am 05:53 Clear 61 16.1 58 14.4 90 90 SE 10 17 30.04 1017 8 13 0.00 0.00
6:53 am 06:53 Clear 61 16.1 58 14.4 90 90 SE 10 17 30.06 1018 8 13 0.00 0.00
7:53 am 07:53 Clear with Mist and Fog 60 15.6 58 14.4 93 93 SSE 10 17 30.08 1019 6 10 0.00 0.00
8:53 am 08:53 Sunny 61 16.1 58 14.4 90 90 SE 8 13 30.08 1019 10 16 0.00 0.00
9:53 am 09:53 Sunny 65 18.3 58 14.4 78 78 SE 8 13 30.09 1019 10 16 0.00 0.00
10:53 am 10:53 Sunny 69 20.6 59 15 70 70 SE 7 11 30.09 1019 10 16 0.00 0.00
11:53 am 11:53 Sunny 73 22.8 60 15.6 64 64 S 3 6 30.07 1018 10 16 0.00 0.00
12:53 pm 12:53 Sunny 77 25 60 15.6 56 56 undefined N/A 30.05 1018 10 16 0.00 0.00
1:53 pm 13:53 Sunny 81 27.2 60 15.6 49 49 Calm 30.01 1016 10 16 0.00 0.00
2:53 pm 14:53 Sunny 82 27.8 60 15.6 47 47 WSW 6 9 29.98 1015 10 16 0.00 0.00
3:53 pm 15:53 Sunny 83 28.3 58 14.4 43 43 NW 3 6 29.97 1015 10 16 0.00 0.00
4:53 pm 16:53 Sunny 83 28.3 58 14.4 43 43 SW 3 6 29.97 1015 10 16 0.00 0.00
5:53 pm 17:53 Sunny 84 28.9 58 14.4 41 41 S 5 7 29.96 1014 10 16 0.00 0.00
6:53 pm 18:53 Sunny 82 27.8 58 14.4 44 44 SSW 3 6 29.96 1015 10 16 0.00 0.00
7:53 pm 19:53 Clear 75 23.9 61 16.1 62 62 SSE 8 13 29.97 1015 10 16 0.00 0.00
8:53 pm 20:53 Clear 73 22.8 60 15.6 64 64 SE 7 11 29.99 1016 10 16 0.00 0.00
9:53 pm 21:53 Clear 72 22.2 61 16.1 68 68 SE 9 15 30.00 1016 10 16 0.00 0.00
10:53 pm 22:53 Clear 71 21.7 60 15.6 68 68 SE 10 17 30.01 1016 10 16 0.00 0.00
11:53 pm 23:53 Clear 69 20.6 58 14.4 68 68 SE 10 17 30.01 1016 10 16 0.00 0.00

Powered by AerisWeather